Simultaneous Nadir Overpasses (SNOs) Predictions

Prediction of SNOs between AQUA and METOP-C Satellite Orbit:

Table of predicted SNOs for the next 14.0 days since TLE Epoch: 10/26/2019
Index Date (AQUA) Time (AQUA) Lat,Lon (AQUA) SZA (AQUA ) Date (METOP-C) Time (METOP-C) Lat,Lon (METOP-C) SZA (METOP-C ) Distance(km) Time Diff (sec)
1 10/28/2019 07:28:40 -73.79,-117.89 93.25 10/28/2019 07:28:20 -73.77,-117.92 93.26 2.05 20
2 10/28/2019 08:18:08 73.85, 49.61 86.83 10/28/2019 08:18:58 73.84, 49.58 86.82 1.54 50
3 10/31/2019 02:13:17 73.26, 142.03 87.14 10/31/2019 02:12:09 73.25, 139.97 87.15 66.27 68
4 10/31/2019 03:02:54 -73.82, -51.51 92.29 10/31/2019 03:02:40 -73.80, -51.44 92.30 2.85 14
5 10/31/2019 03:52:22 73.89, 115.98 87.80 10/31/2019 03:53:18 73.88, 116.07 87.79 2.99 56
6 11/02/2019 21:47:37 73.56,-152.16 88.35 11/02/2019 21:46:26 73.48,-153.10 88.28 30.98 71
7 11/02/2019 22:37:08 -73.80, 14.96 91.40 11/02/2019 22:37:02 -73.78, 14.92 91.42 2.49 6
8 11/02/2019 23:26:36 73.87,-177.55 88.68 11/02/2019 23:27:40 73.86,-177.56 88.67 1.42 64
9 11/05/2019 17:21:54 73.72, -86.04 89.37 11/05/2019 17:20:43 73.72, -86.15 89.38 3.31 71
10 11/05/2019 18:11:22 -73.80, 81.42 90.54 11/05/2019 18:11:23 -73.81, 81.40 90.52 1.92 1
11 11/05/2019 19:00:50 73.87,-111.10 89.55 11/05/2019 19:02:01 73.90,-111.07 89.57 3.15 71
12 11/08/2019 12:56:08 73.77, -19.72 90.26 11/08/2019 12:55:03 73.75, -19.66 90.25 2.63 65
13 11/08/2019 13:45:35 -73.80, 147.86 89.70 11/08/2019 13:45:44 -73.80, 147.76 89.71 2.87 9




NCC Satellite Simultaneous Nadir Overpasses (SNOs) Prediction Service
